TimeMST,TemperatureF,Dew PointF,Humidity,Sea Level PressureIn,VisibilityMPH,Wind Direction,Wind SpeedMPH,Gust SpeedMPH,PrecipitationIn,Events,Conditions,WindDirDegrees,DateUTC
12:53 AM,21.0,15.1,78,30.36,10.0,SSW,8.1,-,N/A,,Clear,200,2012-12-04 07:53:00
1:53 AM,21.9,15.1,75,30.36,10.0,South,5.8,-,N/A,,Clear,180,2012-12-04 08:53:00
2:53 AM,21.0,14.0,74,30.36,10.0,South,6.9,-,N/A,,Clear,180,2012-12-04 09:53:00
3:53 AM,21.9,12.9,68,30.35,10.0,SSE,6.9,-,N/A,,Mostly Cloudy,150,2012-12-04 10:53:00
4:53 AM,21.9,12.0,66,30.37,10.0,SSW,8.1,-,N/A,,Overcast,210,2012-12-04 11:53:00
5:53 AM,23.0,16.0,74,30.37,10.0,SSW,9.2,-,N/A,,Overcast,210,2012-12-04 12:53:00
6:53 AM,25.0,16.0,69,30.36,10.0,South,9.2,-,N/A,,Overcast,190,2012-12-04 13:53:00
7:53 AM,26.1,16.0,66,30.38,10.0,SSW,4.6,-,N/A,,Mostly Cloudy,200,2012-12-04 14:53:00
8:53 AM,28.9,21.0,72,30.38,10.0,SW,10.4,-,N/A,,Scattered Clouds,220,2012-12-04 15:53:00
9:53 AM,30.9,24.1,76,30.39,10.0,SSE,5.8,-,N/A,,Mostly Cloudy,160,2012-12-04 16:53:00
10:53 AM,36.0,28.9,76,30.38,10.0,SW,13.8,17.3,N/A,,Clear,230,2012-12-04 17:53:00
11:53 AM,37.9,34.0,86,30.35,10.0,SW,20.7,28.8,N/A,,Mostly Cloudy,230,2012-12-04 18:53:00
12:53 PM,37.9,35.1,89,30.35,10.0,WSW,18.4,-,N/A,,Overcast,250,2012-12-04 19:53:00
1:53 PM,39.0,32.0,76,30.33,10.0,WSW,20.7,26.5,N/A,,Mostly Cloudy,240,2012-12-04 20:53:00
2:53 PM,39.9,32.0,73,30.32,10.0,SW,13.8,-,N/A,,Overcast,230,2012-12-04 21:53:00
3:53 PM,39.9,32.0,73,30.32,10.0,SW,13.8,-,N/A,,Overcast,230,2012-12-04 22:53:00
4:53 PM,37.9,32.0,79,30.33,10.0,SW,16.1,-,N/A,,Overcast,220,2012-12-04 23:53:00
5:53 PM,37.0,33.1,86,30.33,10.0,SW,16.1,-,0.00,Rain,Light Rain,220,2012-12-05 00:53:00
6:53 PM,36.0,34.0,93,30.33,10.0,SW,11.5,-,0.00,Rain,Light Rain,220,2012-12-05 01:53:00
7:53 PM,34.0,33.1,96,30.31,10.0,SSW,11.5,-,0.00,,Mostly Cloudy,200,2012-12-05 02:53:00
8:09 PM,33.8,33.8,100,30.26,10.0,SSW,10.4,-,N/A,,Mostly Cloudy,200,2012-12-05 03:09:00
8:53 PM,35.1,34.0,96,30.25,10.0,SW,17.3,-,N/A,,Scattered Clouds,230,2012-12-05 03:53:00
9:53 PM,36.0,34.0,93,30.22,10.0,SW,12.7,-,N/A,,Overcast,230,2012-12-05 04:53:00
10:53 PM,36.0,33.1,89,30.18,10.0,WSW,12.7,-,N/A,,Scattered Clouds,240,2012-12-05 05:53:00
11:53 PM,36.0,33.1,89,30.17,10.0,SW,10.4,-,N/A,,Clear,230,2012-12-05 06:53:00